Location: Newark
(45.5000°N, 11.4167°E)
Time: 14:31:52
(UTC+00:00)

Transit 2A Rocket - Pass Details

Date: 27 August 2019
Orbit: 592 x 911 km, 66.7° (Epoch: 19 September)

Event Time Altitude Azimuth Distance (km) Brightness Sun altitude
Rises 16:05:06 0° 175° (S) 3,454 8.4 19.5°
Reaches altitude 10° 16:08:03 10° 163° (SSE) 2,480 7.6 19.0°
Maximum altitude 16:12:35 25° 110° (ESE) 1,606 6.3 18.2°
Drops below altitude 10° 16:16:53 10° 57° (ENE) 2,333 7.1 17.4°
Sets 16:19:33 0° 44° (NE) 3,206 7.8 17.0°
